Wind_Speed
3 6 10 16 21 30 35 35 33 16 4 15 26 26 27 25 26 25 23 26 24 19
10 8 12 15 23 25 30 40 31 18 21 28 35 34 29 28 31 28 27 32 31 24
16 15 16 15 17 23 28 34 35 29 31 40 53 42 36 33 32 29 28 31 28 31
9 10 14 18 19 20 22 26 25 26 31 25 52 46 35 37 35 35 34 30 31 29
12 11 16 19 23 24 24 21 22 27 29 26 23 32 41 45 37 36 38 34 29 29
14 15 17 18 18 25 28 27 24 21 25 25 22 16 19 54 26 31 36 38 36 35
17 17 18 19 20 20 26 30 29 25 24 24 26 24 16 21 35 35 36 46 43 40
20 20 20 20 22 22 23 26 29 29 27 23 20 22 20 12 20 33 40 36 44 39
23 23 23 22 23 23 24 24 27 33 33 27 21 18 19 19 20 13 7 36 25 46
25 26 26 26 25 25 27 27 25 24 30 36 27 24 18 19 22 18 10 15 20 35
26 24 21 18 20 26 28 28 31 33 29 27 31 30 26 21 25 24 16 15 15 17
29 28 27 27 26 24 20 23 28 30 34 36 35 28 31 28 25 23 22 19 16 19
27 28 27 26 32 35 35 31 27 26 28 31 34 33 31 31 33 29 26 20 20 21
29 32 35 34 35 34 32 32 32 36 37 39 39 39 38 31 28 29 29 26 25 24
Wind_Direction
356 263 259 251 255 258 255 265 273 338 207 197 254 243 236 234 237 227 217 203 198 200
355 332 299 286 265 263 260 269 289 283 260 232 242 246 242 229 233 221 211 205 203 195
344 333 324 316 292 281 279 279 280 285 288 250 236 236 235 229 226 215 217 210 207 203
333 335 317 312 308 304 302 313 298 296 270 284 217 220 232 228 219 221 221 216 209 204
323 320 324 306 303 302 301 311 335 316 294 278 246 244 262 245 219 224 219 218 209 210
317 316 311 307 314 313 306 303 307 321 315 302 282 296 254 237 240 236 232 223 215 212
304 303 308 306 306 301 302 306 307 308 309 314 327 323 319 206 254 247 263 233 226 210
302 301 294 295 300 298 298 302 304 306 308 303 315 323 331 307 259 241 248 255 224 212
300 297 297 295 293 293 294 297 295 298 299 307 302 303 308 310 286 321 302 229 238 231
298 297 295 291 289 288 284 282 287 295 294 298 305 307 294 290 292 294 269 270 260 227
299 299 290 296 294 285 284 281 278 278 281 289 290 297 303 301 290 290 283 268 275 269
300 302 302 294 302 287 283 282 286 283 284 278 279 288 297 295 294 290 284 277 263 245
287 290 295 296 291 286 282 281 278 283 281 283 279 282 286 288 285 286 285 265 265 253
291 283 280 285 282 279 278 282 284 281 273 270 274 271 274 273 281 278 277 275 260 255
Height
1508 1508 1508 1506 1504 1504 1503 1497 1487 1455 1446 1494 1524 1519 1517 1512 1516 1515 1513 1515 1519 1522
1507 1506 1504 1503 1501 1499 1496 1489 1493 1501 1498 1496 1509 1517 1509 1505 1512 1510 1507 1507 1511 1517
1507 1505 1503 1500 1497 1496 1493 1489 1490 1490 1484 1483 1506 1512 1493 1500 1505 1509 1507 1506 1507 1511
1506 1505 1502 1499 1495 1492 1490 1487 1484 1483 1481 1482 1479 1490 1497 1495 1498 1502 1504 1504 1503 1507
1503 1502 1500 1497 1494 1489 1487 1487 1485 1476 1472 1476 1483 1487 1494 1493 1492 1496 1499 1503 1506 1505
1501 1499 1498 1496 1492 1488 1482 1482 1483 1482 1477 1476 1474 1474 1463 1462 1492 1501 1495 1499 1500 1498
1498 1497 1495 1494 1491 1487 1482 1476 1476 1477 1477 1475 1472 1473 1475 1469 1482 1491 1482 1486 1494 1494
1496 1493 1492 1490 1488 1485 1482 1477 1471 1469 1472 1475 1475 1471 1473 1474 1475 1479 1486 1456 1483 1482
1493 1490 1488 1486 1484 1482 1480 1477 1472 1465 1461 1469 1473 1473 1474 1473 1474 1475 1470 1474 1473 1487
1489 1487 1484 1481 1479 1477 1475 1472 1469 1465 1460 1453 1463 1468 1470 1469 1468 1469 1472 1469 1466 1466
1485 1480 1476 1474 1473 1471 1468 1465 1464 1461 1459 1454 1449 1453 1460 1464 1461 1460 1462 1464 1462 1459
1476 1473 1470 1468 1466 1464 1462 1460 1458 1456 1453 1451 1447 1445 1446 1452 1455 1455 1455 1456 1458 1460
1469 1467 1464 1462 1460 1457 1455 1453 1451 1449 1448 1447 1444 1443 1441 1440 1443 1446 1449 1452 1452 1453
1463 1460 1457 1455 1453 1450 1447 1445 1444 1441 1440 1439 1439 1438 1438 1436 1434 1435 1437 1441 1445 1449